Location: Airlie Beach - Cannonvale QLD, Australia
(20.2768°S, 148.7558°E)
Time: 05:19:57
(UTC+10:00)

BlueWalker 3 - Pass Details

Date: 30 March 2023
Orbit: 494 x 513 km, 53.2° (Epoch: 31 May)

Event Time Altitude Azimuth Distance (km) Brightness Sun altitude
Exits shadow 04:47:18 - 356° (N) 2,417 5.3 -20.5°
Reaches altitude 10° 04:49:36 10° 14° (NNE) 1,682 4.7 -20.0°
Maximum altitude 04:52:13 18° 58° (ENE) 1,276 4.6 -19.4°
Drops below altitude 10° 04:54:52 10° 102° (ESE) 1,699 5.8 -18.8°
Sets 04:57:35 0° 121° (ESE) 2,593 6.7 -18.1°
